Location: Passau
(48.5721°N, 13.4363°E)
Time: 12:04:53
(UTC+02:00)

ISS - Pass Details

Date: 25 September 2020
Orbit: 418 x 420 km, 51.6° (Epoch: 21 October)

Event Time Altitude Azimuth Distance (km) Brightness Sun altitude
Rises 17:48:42 0° 220° (SW) 2,353 1.0 10.4°
Reaches altitude 10° 17:50:54 10° 210° (SSW) 1,494 -0.2 10.0°
Drops below altitude 10° 17:56:59 10° 80° (E) 1,503 -1.5 9.1°
Enters shadow 18:01:36 -7° 66° (ENE) 3,333 0.1 8.3°
Exits shadow 18:36:51 -80° 59° (ENE) 12,970 3.6 2.5°
Maximum altitude 19:30:35 68° 344° (NNW) 456 -3.5 -6.4°
